Showing default

COSMOS 1481, 14182

Orbit data source: Space-Track

COSMOS 1481, 14182 is a payload satellite owned by PVO (CIS) in HEO that was launched on Fri, 08 Jul 1983 UTC via an MOLNIYA 8K78M launch vehicle from the Plesetsk Missile And Space Complex (PKMTR). Payload-class satellites include a variety of spacecraft equipped with specific instruments for various scientific and technological missions. These include communications satellites like Starlink; space stations such as the ISS; scientific satellites like the Hubble; Earth observation satellites from companies like Planet Labs, Umbra, and HawkEye 360; GPS; miniature CubeSats for education and research; and military/defense satellites.

Loading next visibility...
Identifier
14182, 1983-070A
Orbit
HEO
Country
Flag of CISCIS
Related business
Manufacturer
NPOL/KOMET
Mission
Spacecraft
Bus & Motor
OKO, Unknown motor
Mass
~1,250 kg wet, ~1,150 kg dry
Launch date (UTC)
1983-07-08 (43 years ago)
Launch vehicle
MOLNIYA 8K78M
Launch site
Plesetsk Missile And Space Complex (PKMTR)
Object type
Payload
Rocket body
Debris
Shape & HBR
Unknown
Radar Cross Section
Large (>1 m²)

Expand to show TLE details & history
Last TLE update: 5 days ago

TLE from 5 days ago
0 COSMOS 1481
1 14182U 83070A   26168.35279877 -.00000141  00000-0  00000-0 0  9992
2 14182  70.5463 252.2385 5631159 228.3350  67.6055  2.03584406240101
Epoch: 2026-06-17T08:28Z
TLE epoch observation values (Epoch: 2026-06-17T08:28:01.813Z)
Latitude
-0.00001°
Longitude
-140.36808°
Altitude
22,347.783 km
Speed
3.549 km/s
True Right ascension
16h 49m 00s
True Declination
0° 00' 00"
Sunlit
Object was in daylight at epoch
Visualization orbit readout
Latitude
Unknown
Longitude
Unknown
Altitude
Unknown
Speed
Unknown
Apparent Right ascension
Unknown
Apparent Declination
Unknown
Sunlit
N/A
Visualization observer readout
Local Sidereal Time
00:28:30
Azimuth
Unknown
Elevation
Unknown
Doppler factor
Unknown
Orbital elements
Apogee altitude
34,725.533 km
Perigee altitude
5,110.16 km
Semi-major axis
26,295.983 km
Eccentricity
0.56312
Inclination
70.5463°
RAAN
252.2385°
Arg. of periapsis
228.335°
True anomaly
131.7273°
Mean anomaly
67.6055°
Eccentric anomaly
99.43335°
Mean motion
0.50899 °/min
Orbital period
707.28 mins
BSTAR
0
Loading maneuver chart data...
Computing Atmospheric mass density...
Loading historical data...
Loading historical data...
Loading historical data...
Loading historical data...
Loading historical data...
Loading historical data...
Loading historical data...

Documentation

Showing up to 5 results
|